map of LHKE home
Great Circle Mapper logo
LHKE - Airport
Location
City:  Kecskemét, Hungary
Name:Titan
ICAO:LHKE

Details
Type:Airport (Aerodrome, Airfield)
Use:Military
Latitude:46°55'03"N (46.917500)
Longitude:19°44'57"E (19.749222)
Datum:WGS 1984
Elevation:376 ft (115 m)
Variation:4.3°E (WMM2010 magnetic declination)
Runways:1
Longest:8200 × 197 ft (2499 × 60 m), paved

Time
Time Zone:UTC+1 (DST+2)
Local Time:

Weather
METAR:LHKE 280620Z 09006KT 060V120 0800 -DZ FG OVC003 01/01 Q1019 NOSIG RMK AMB

Related Locations
Nearby:
Farthest:CHT: 11623 mi / 18706 km
Waitangi [Tuuta], Chatham Islands, NZ

Find:

   beyond  
but within

Other Information
Maps:
NOTAMs:
Links:
Sources:

  
flag of Hungary   

Sectional Chart

Flight Planning
at skyvector.com

Satellite Image

Google Maps Satellite View

 

Copyright © 2004-2014 Karl L. Swartz. All rights reserved.
The Great Circle Mapper name and logo are trademarks of the Great Circle Mapper.
All other trademarks mentioned herein belong to their respective owners.
Please see credits for attibutions and further copyright information.

  Follow gcmap on Facebook Follow gcmap on Twitter

hCard Microformat

Geo Microformat